EW1042 Weather Reports


time (UTC)temp
C
wind
direction
speed
KPH
gust
KPH
rain 1hr
cm
rain 24hr
cm
rain mn
cm
humidity
%
barometer
mb
20260509224542 13 163 8.0 17.7 0.00 0.00 0.00 70 1010.1
20260509223016 14 178 12.9 24.1 0.00 0.00 0.00 67 1010.2
20260509221519 15 175 9.7 19.3 0.00 0.00 0.00 67 1010.4
20260509220057 15 170 9.7 22.5 0.00 0.00 0.00 66 1010.2
20260509214601 15 236 9.7 24.1 0.00 0.00 0.00 66 1010.2
20260509213034 15 151 9.7 19.3 0.00 0.00 0.00 67 1010.5
20260509211533 15 208 8.0 20.9 0.00 0.00 0.00 68 1010.6
20260509210019 14 235 4.8 33.8 0.00 0.00 0.00 69 1010.6
20260509204513 13 187 6.4 22.5 0.00 0.00 0.00 70 1010.7
20260509203055 13 204 9.7 17.7 0.00 0.00 0.00 69 1011.0
20260509201559 13 169 4.8 14.5 0.00 0.00 0.00 69 1011.1
20260509200041 13 159 8.0 27.4 0.00 0.00 0.00 70 1011.2
20260509194534 12 138 12.9 20.9 0.00 0.00 0.00 71 1011.3
20260509193015 12 146 9.7 19.3 0.00 0.00 0.00 71 1011.8
20260509191514 12 165 8.0 22.5 0.00 0.00 0.00 71 1012.0
20260509190113 12 169 11.3 24.1 0.00 0.00 0.00 72 1012.3
20260509184554 13 173 12.9 27.4 0.00 0.00 0.00 70 1012.3
20260509183054 13 155 14.5 25.7 0.00 0.00 0.00 68 1012.1
20260509181538 13 227 8.0 19.3 0.00 0.00 0.00 64 1012.0
20260509180035 14 178 12.9 25.7 0.00 0.00 0.00 62 1012.0
20260509174516 14 201 8.0 22.5 0.00 0.00 0.00 61 1012.1
20260509173014 14 197 8.0 19.3 0.00 0.00 0.00 60 1012.2
20260509171600 14 171 9.7 16.1 0.00 0.00 0.00 59 1012.5
20260509171502 14 200 8.0 19.3 0.00 0.00 0.00 59 1012.5
20260509170108 13 130 8.0 24.1 0.00 0.00 0.00 61 1012.6
20260509164559 13 146 11.3 22.5 0.00 0.00 0.00 62 1012.7
20260509163054 13 161 8.0 20.9 0.00 0.00 0.00 63 1012.9
20260509161558 13 158 8.0 17.7 0.00 0.00 0.00 64 1013.3
20260509160051 13 161 8.0 17.7 0.00 0.00 0.00 66 1013.5
20260509154546 12 205 8.0 17.7 0.00 0.00 0.00 66 1013.6
20260509153053 12 199 9.7 19.3 0.00 0.00 0.00 65 1013.8
20260509151528 13 140 9.7 17.7 0.00 0.00 0.00 64 1014.0
20260509150034 13 197 8.0 12.9 0.00 0.00 0.00 65 1014.0
20260509144505 12 144 4.8 17.7 0.00 0.00 0.00 67 1014.2
20260509143005 12 133 9.7 16.1 0.00 0.00 0.00 65 1014.2
20260509141545 12 132 3.2 16.1 0.00 0.00 0.00 67 1014.3
20260509140048 12 173 6.4 17.7 0.00 0.00 0.00 65 1014.3
20260509134523 12 151 9.7 16.1 0.00 0.00 0.00 66 1014.3
20260509133020 11 158 9.7 22.5 0.00 0.00 0.00 67 1014.6
20260509131601 11 151 9.7 27.4 0.00 0.00 0.00 65 1014.7
20260509130058 11 146 12.9 27.4 0.00 0.00 0.00 64 1014.8
20260509124537 10 155 11.3 19.3 0.00 0.00 0.00 60 1014.7
20260509123034 10 136 11.3 19.3 0.00 0.00 0.00 57 1015.0
20260509121523 10 155 9.7 30.6 0.00 0.00 0.00 53 1014.9
20260509120011 9 136 11.3 25.7 0.00 0.00 0.00 50 1015.0
20260509114551 8 150 11.3 25.7 0.00 0.00 0.00 49 1015.2
20260509113053 8 132 14.5 22.5 0.00 0.00 0.00 50 1015.2
20260509111531 8 170 12.9 25.7 0.00 0.00 0.00 50 1015.1
20260509110031 7 157 11.3 22.5 0.00 0.00 0.00 51 1015.2
20260509104513 7 140 14.5 25.7 0.00 0.00 0.00 52 1015.1
20260509103013 7 161 14.5 24.1 0.00 0.00 0.00 53 1015.0
20260509101604 6 135 11.3 22.5 0.00 0.00 0.00 54 1014.9
20260509100054 6 143 11.3 19.3 0.00 0.00 0.00 56 1015.0
20260509094536 6 155 9.7 17.7 0.00 0.00 0.00 57 1015.1
20260509093035 6 153 6.4 14.5 0.00 0.00 0.00 57 1015.2
20260509091520 6 153 6.4 14.5 0.00 0.00 0.00 57 1015.3
20260509090016 6 155 8.0 14.5 0.00 0.00 0.00 56 1015.4
20260509084600 6 169 3.2 11.3 0.00 0.00 0.00 57 1015.5
20260509083056 6 163 6.4 14.5 0.00 0.00 0.00 57 1015.6
20260509081537 6 184 6.4 14.5 0.00 0.00 0.00 57 1015.7
20260509080038 6 146 9.7 16.1 0.00 0.00 0.00 57 1015.8
20260509074519 6 141 9.7 16.1 0.00 0.00 0.00 57 1015.7
20260509073018 6 158 6.4 17.7 0.00 0.00 0.00 57 1015.9
20260509071608 6 153 8.0 14.5 0.00 0.00 0.00 57 1015.9
20260509070100 6 155 8.0 16.1 0.00 0.00 0.00 56 1016.0
20260509064556 6 167 8.0 17.7 0.00 0.00 0.00 55 1016.0
20260509063043 6 165 9.7 20.9 0.00 0.00 0.00 53 1016.2
20260509061525 6 157 9.7 19.3 0.00 0.00 0.00 52 1016.2
20260509060023 6 165 9.7 17.7 0.00 0.00 0.00 50 1016.5
20260509054502 6 171 9.7 22.5 0.00 0.00 0.00 50 1016.6
20260509053004 6 165 6.4 17.7 0.00 0.00 0.00 52 1016.8
20260509051547 6 156 8.0 17.7 0.00 0.00 0.00 53 1016.9
20260509050044 6 166 8.0 12.9 0.00 0.00 0.00 53 1016.9
20260509044527 6 163 6.4 14.5 0.00 0.00 0.00 53 1017.1
20260509043026 5 165 4.8 11.3 0.00 0.00 0.00 54 1017.2
20260509041508 6 173 6.4 12.9 0.00 0.00 0.00 53 1017.1
20260509040007 6 186 6.4 14.5 0.00 0.00 0.00 54 1017.0
20260509034554 5 167 6.4 12.9 0.00 0.00 0.00 52 1017.0
20260509033053 6 150 8.0 16.1 0.00 0.00 0.00 49 1016.9
20260509031532 5 169 4.8 9.7 0.00 0.00 0.00 48 1017.2
20260509030032 5 163 3.2 6.4 0.00 0.00 0.00 47 1017.3
20260509024513 5 165 3.2 8.0 0.00 0.00 0.00 47 1017.5
20260509023012 5 166 4.8 8.0 0.00 0.00 0.00 47 1017.5
20260509021554 5 168 3.2 11.3 0.00 0.00 0.00 49 1017.5
20260509020054 6 194 4.8 12.9 0.00 0.00 0.00 50 1017.5
20260509014535 6 192 4.8 9.7 0.00 0.00 0.00 51 1017.4
20260509013035 6 214 3.2 6.4 0.00 0.00 0.00 52 1017.2
20260509011517 6 215 4.8 6.4 0.00 0.00 0.00 52 1016.9
20260509010020 6 219 3.2 6.4 0.00 0.00 0.00 52 1016.8
20260509004622 6 219 3.2 6.4 0.00 0.00 0.00 51 1016.6
20260509003058 7 219 1.6 6.4 0.00 0.00 0.00 51 1016.5
20260509001549 7 227 4.8 9.7 0.00 0.00 0.00 48 1016.6
20260509000041 7 215 8.0 14.5 0.00 0.00 0.00 47 1016.5
20260508234526 7 216 6.4 14.5 0.00 0.00 0.00 47 1016.3
20260508233021 8 246 6.4 14.5 0.00 0.00 0.00 48 1016.3
20260508231504 8 244 11.3 19.3 0.00 0.00 0.00 48 1016.3
20260508230002 8 252 11.3 19.3 0.00 0.00 0.00 49 1016.4